Vertical_Velocity
-0 -1 -0 -0 -0 0 0 -0 1 1 0 0 0 -1 -1 0 0 -1 -1 -1 0 1 0 -0 -0 -1 0 -2 1 0 -1 -4 2 -0 2 -0 -3 -2 0 -1 0 1 0 -1 1
-1 -0 -0 -0 -1 -0 -0 0 1 1 0 -1 0 0 0 -0 1 -1 -1 -2 1 1 0 1 -0 -2 1 -1 1 -3 -3 -1 2 -1 1 1 1 -2 0 -2 0 0 -2 1 -2
-0 0 1 0 -0 0 0 0 1 0 0 -0 0 0 0 1 -2 5 -2 -2 0 -0 0 -1 -2 -2 -1 -1 2 -0 -2 1 -1 -2 1 2 0 1 1 0 -1 -4 2 -2 -3
-1 -0 -0 0 0 0 0 -0 1 0 -0 -0 -1 -0 1 0 -2 -3 -1 -1 3 1 0 -2 -0 -4 0 -2 3 -6 -1 0 1 -4 -2 -2 -0 1 2 1 3 -2 -2 1 0
-1 -0 1 0 0 0 1 -0 0 0 -1 -0 -0 1 -0 -1 0 1 1 1 2 1 -2 -0 -2 -5 2 -1 -1 -3 -2 -2 0 -4 -3 1 -1 -4 3 1 1 2 2 -2 0
-0 0 0 0 0 -0 0 -0 0 -0 0 0 1 1 1 -0 0 0 1 0 1 2 -3 1 -2 -4 -5 -2 -1 -3 -1 0 1 2 2 1 -1 -5 4 -2 0 2 6 0 -2
-1 -0 0 -0 -1 -1 -0 0 1 0 0 0 -0 1 1 -1 -0 -0 -0 1 3 -2 -2 2 -3 -3 -1 -2 -0 -1 0 -1 2 1 1 2 3 0 -4 0 -4 -1 -0 0 2
0 0 -0 -0 -0 0 -0 -0 -0 0 1 1 0 0 0 1 1 -0 0 1 3 -2 3 1 -3 -3 -2 -1 4 -4 0 -1 3 2 1 4 1 1 -2 -3 0 3 3 1 -0
1 0 -0 -1 -0 -1 -0 0 0 1 2 1 1 1 -1 1 1 1 -0 -1 0 -1 4 0 0 -4 -1 -4 2 -1 -2 1 -3 1 -1 5 1 1 2 -3 -4 1 -1 -2 -1
1 1 -0 -1 0 0 2 2 1 1 -0 -1 -0 -0 2 0 1 3 1 -0 1 -1 2 0 2 -3 -3 0 -2 -5 5 -1 -0 1 2 -2 -1 -2 -1 2 -3 0 2 0 1
1 1 1 -1 -0 1 2 1 1 1 1 0 -1 -2 -1 -2 -1 1 2 0 1 -0 1 -0 0 -0 -4 3 1 -2 -1 2 -0 -1 3 1 -4 -1 -6 -1 1 3 0 -2 2
1 1 1 -1 0 2 1 2 1 -1 -0 -1 -1 -0 1 -0 -1 1 -2 1 2 -0 -1 2 -1 0 -5 0 2 -4 3 -1 -4 -1 2 4 -4 -2 -6 -2 3 -1 1 -1 -1
0 -0 0 -1 2 3 1 2 0 -2 -2 1 -1 1 1 1 -1 1 -1 -1 3 -2 -2 1 -1 3 -3 1 -1 4 3 -2 -1 -0 -2 2 -3 -3 -3 -3 -1 -1 1 1 -1
0 -0 -0 -1 3 2 2 1 0 2 0 2 -3 2 1 -1 -1 1 0 -1 -0 3 -2 3 3 4 -1 2 -3 -3 -8 -2 -2 -0 0 0 -2 -5 -1 0 -2 -1 -0 2 -2
-0 -0 -1 1 3 1 1 1 1 3 -0 -2 0 1 3 -1 0 1 0 0 3 2 3 5 2 2 0 1 -1 4 -1 -3 -2 1 -2 -1 -2 0 -3 -3 -3 1 3 -1 1
1 -0 -1 2 2 2 1 0 1 1 -2 -3 -1 -3 1 -2 -1 -0 0 0 -1 -2 0 -0 0 -1 1 -1 1 5 -3 -3 -2 1 3 -1 -6 1 5 1 -1 -3 -1 -1 2
2 -0 1 2 1 -0 1 1 -2 -1 -1 -4 -2 0 0 -0 -0 -0 -0 1 1 -0 1 6 -2 -0 -2 -0 2 2 3 -2 1 -1 1 -3 -8 -2 3 -0 -4 0 -1 -4 -1
2 1 -1 1 0 1 0 -0 0 -1 0 1 -1 -1 -1 1 -1 -1 -2 1 1 1 4 2 -5 4 5 2 5 -2 2 -0 -9 -9 -5 -3 -4 -8 -2 1 -1 -5 -0 -2 -2
0 -0 -0 -1 0 1 0 1 -3 1 1 1 -1 -1 -1 -1 3 0 0 -1 0 2 -0 4 1 2 3 -1 5 1 0 -1 -7 -5 -6 -1 -1 -5 -4 -2 4 -2 0 -3 -1
-2 0 -0 1 -0 1 1 1 -2 -1 1 2 -2 -1 1 -1 3 -4 -3 2 1 2 -1 -2 1 3 -0 -0 2 1 -1 2 5 -4 -6 -2 -8 -0 -6 1 -1 1 1 1 -2
-1 -0 0 0 1 1 3 -2 -3 2 2 0 -1 -2 -0 1 0 -1 -2 -3 4 -1 -4 -4 1 1 3 1 3 5 1 -0 2 -1 -9 -2 -5 4 2 -4 2 -3 -1 4 6
-1 -2 5 2 1 2 -2 -8 1 2 -1 -1 -3 -0 -0 3 2 -1 -2 0 2 1 -1 -3 -3 1 4 0 2 1 -1 2 5 -1 -2 -6 -9 2 2 -9 2 3 4 2 1
-2 -2 3 -1 -1 1 3 -0 3 -1 -1 2 -0 -0 1 1 -1 -0 -0 2 2 2 0 3 0 1 -1 1 -3 -1 5 6 -1 1 -5 -2 -14 -5 2 -7 -1 2 4 4 2
-2 -1 2 -0 3 3 2 -1 -1 1 1 -2 0 2 1 0 0 -0 -1 -3 -2 0 0 2 -1 -5 -3 3 5 -0 6 4 -1 3 3 -7 -10 -6 -3 2 -1 2 1 -1 3
-0 1 4 2 2 3 -1 -0 1 0 -2 1 -0 2 -1 1 -3 -1 1 1 0 1 1 -0 2 4 0 -2 3 5 4 -0 2 4 1 -8 -4 -6 -1 6 6 -5 0 -2 -2
0 0 0 3 -0 1 1 2 2 1 2 3 2 0 -1 1 1 -0 1 -7 1 -2 2 7 2 3 1 2 -2 3 -0 -0 3 0 -0 -2 -15 -0 -2 0 -3 -0 -4 -0 1
0 6 -3 2 0 1 1 6 1 3 0 1 -1 1 0 2 6 3 3 3 5 5 -2 -6 3 2 -3 1 0 -6 -1 0 -4 -3 0 -4 -6 -6 3 -2 -1 -2 -2 -5 -2
Height
5882 5883 5885 5887 5888 5890 5892 5893 5894 5895 5896 5898 5900 5902 5903 5904 5905 5906 5906 5907 5908 5908 5909 5909 5911 5911 5910 5911 5911 5911 5909 5908 5909 5908 5907 5904 5902 5901 5899 5895 5893 5890 5889 5888 5888
5879 5881 5882 5884 5887 5889 5891 5892 5894 5896 5897 5898 5899 5901 5903 5904 5905 5905 5906 5906 5908 5908 5909 5910 5911 5910 5911 5912 5912 5910 5910 5911 5912 5911 5909 5906 5903 5902 5900 5896 5893 5889 5888 5887 5888
5877 5878 5880 5882 5885 5887 5889 5891 5893 5895 5896 5898 5899 5900 5902 5903 5905 5906 5906 5906 5908 5908 5909 5909 5909 5909 5911 5914 5913 5911 5912 5913 5912 5911 5910 5908 5905 5903 5900 5897 5894 5890 5888 5887 5886
5875 5876 5877 5879 5882 5884 5887 5889 5892 5894 5896 5897 5899 5900 5901 5902 5904 5904 5905 5906 5908 5908 5908 5908 5910 5909 5912 5916 5913 5912 5912 5913 5913 5911 5909 5908 5906 5905 5902 5899 5896 5891 5888 5887 5887
5872 5873 5875 5877 5879 5881 5884 5887 5891 5893 5895 5896 5898 5900 5901 5902 5903 5903 5904 5905 5907 5908 5908 5908 5910 5909 5912 5916 5915 5913 5913 5914 5914 5911 5910 5909 5907 5906 5905 5902 5899 5895 5890 5884 5883
5869 5870 5871 5873 5876 5879 5882 5886 5889 5892 5893 5895 5897 5899 5901 5902 5902 5902 5904 5905 5905 5907 5906 5908 5910 5909 5911 5915 5915 5914 5914 5916 5916 5915 5913 5911 5909 5907 5907 5903 5900 5896 5894 5888 5886
5865 5866 5868 5870 5873 5876 5880 5884 5887 5890 5892 5894 5895 5898 5900 5901 5901 5902 5904 5904 5905 5905 5905 5909 5909 5910 5912 5915 5916 5915 5916 5917 5918 5917 5916 5914 5912 5908 5907 5905 5901 5897 5893 5890 5886
5864 5864 5866 5868 5871 5874 5878 5882 5885 5888 5891 5893 5895 5897 5899 5900 5901 5902 5903 5904 5904 5904 5905 5909 5909 5910 5912 5916 5917 5916 5916 5917 5918 5917 5918 5917 5914 5911 5908 5906 5902 5899 5895 5889 5888
5862 5863 5864 5867 5870 5873 5877 5881 5884 5888 5890 5892 5895 5896 5899 5900 5901 5902 5902 5903 5903 5903 5905 5908 5909 5911 5912 5917 5917 5916 5916 5918 5917 5915 5917 5917 5915 5913 5911 5907 5903 5899 5896 5891 5889
5861 5862 5863 5866 5869 5872 5875 5879 5883 5886 5889 5891 5893 5897 5898 5899 5900 5901 5901 5902 5903 5903 5906 5907 5909 5911 5913 5915 5917 5916 5918 5917 5918 5919 5917 5916 5914 5913 5912 5910 5905 5900 5897 5893 5889
5859 5861 5862 5865 5868 5871 5875 5878 5883 5886 5887 5890 5892 5894 5896 5897 5899 5900 5901 5902 5903 5903 5905 5906 5909 5911 5913 5916 5918 5919 5917 5918 5918 5918 5918 5917 5914 5913 5911 5909 5906 5901 5897 5893 5891
5856 5858 5861 5863 5866 5870 5873 5877 5880 5884 5885 5887 5889 5891 5893 5895 5897 5899 5900 5902 5902 5902 5904 5907 5908 5911 5912 5915 5917 5918 5919 5918 5918 5917 5918 5917 5914 5912 5911 5909 5906 5903 5900 5894 5892
5852 5855 5858 5860 5864 5868 5871 5874 5877 5879 5883 5886 5887 5889 5891 5894 5895 5898 5899 5900 5901 5901 5903 5905 5908 5909 5912 5914 5917 5917 5918 5916 5917 5918 5917 5916 5915 5912 5910 5908 5906 5904 5901 5897 5894
5847 5851 5854 5856 5862 5865 5868 5871 5873 5877 5880 5884 5884 5887 5889 5890 5892 5894 5896 5898 5899 5901 5902 5904 5906 5908 5911 5913 5915 5914 5914 5915 5916 5917 5917 5916 5915 5912 5912 5911 5908 5904 5902 5899 5895
5841 5845 5849 5853 5857 5861 5865 5868 5870 5874 5878 5880 5881 5884 5886 5887 5890 5891 5892 5895 5897 5898 5902 5904 5904 5906 5908 5912 5912 5913 5912 5913 5913 5915 5916 5915 5914 5912 5910 5911 5910 5906 5903 5900 5897
5834 5839 5843 5848 5852 5857 5860 5864 5867 5872 5872 5874 5875 5879 5882 5882 5883 5886 5889 5891 5893 5895 5897 5900 5901 5903 5906 5908 5910 5913 5912 5912 5912 5914 5914 5913 5913 5913 5912 5911 5908 5906 5904 5902 5899
5828 5832 5837 5842 5847 5851 5854 5859 5864 5866 5868 5869 5873 5876 5877 5877 5880 5882 5885 5888 5890 5892 5895 5896 5898 5900 5901 5905 5909 5911 5911 5910 5912 5912 5912 5911 5911 5912 5911 5910 5908 5906 5905 5902 5899
5821 5825 5829 5836 5840 5844 5849 5854 5858 5860 5862 5865 5869 5871 5873 5874 5877 5878 5881 5884 5886 5889 5891 5892 5894 5896 5898 5902 5906 5907 5908 5909 5906 5907 5907 5908 5910 5911 5911 5911 5908 5906 5903 5901 5899
5814 5818 5823 5829 5833 5838 5844 5849 5852 5854 5858 5860 5864 5866 5869 5870 5873 5875 5878 5880 5883 5885 5887 5888 5891 5892 5894 5898 5902 5903 5905 5905 5904 5905 5906 5906 5909 5911 5911 5910 5909 5905 5901 5898 5897
5807 5811 5816 5821 5826 5832 5837 5844 5846 5846 5850 5855 5858 5862 5864 5865 5868 5872 5874 5876 5879 5880 5881 5884 5886 5888 5890 5893 5897 5899 5902 5903 5903 5904 5903 5903 5905 5908 5908 5910 5908 5905 5901 5897 5897
5800 5804 5809 5815 5820 5826 5832 5838 5839 5839 5842 5850 5854 5858 5860 5861 5865 5868 5871 5874 5874 5874 5876 5879 5883 5885 5885 5887 5892 5896 5897 5899 5900 5902 5902 5900 5902 5906 5905 5907 5908 5906 5903 5899 5898
5793 5798 5803 5808 5815 5819 5825 5830 5831 5833 5836 5842 5848 5852 5857 5858 5861 5865 5868 5868 5871 5872 5874 5876 5878 5880 5883 5884 5887 5891 5893 5895 5896 5899 5898 5898 5899 5901 5902 5901 5904 5904 5902 5900 5899
5786 5791 5797 5801 5807 5812 5819 5825 5828 5829 5833 5836 5841 5846 5850 5854 5858 5861 5864 5866 5868 5869 5873 5873 5875 5877 5879 5882 5883 5886 5891 5893 5892 5894 5894 5895 5896 5897 5899 5900 5899 5902 5901 5899 5897
5780 5785 5791 5795 5801 5807 5813 5818 5822 5824 5828 5831 5834 5838 5844 5850 5854 5856 5860 5862 5865 5867 5869 5870 5871 5875 5877 5880 5883 5886 5888 5889 5889 5890 5890 5890 5891 5893 5895 5898 5897 5898 5899 5899 5897
5772 5779 5785 5790 5797 5802 5807 5812 5816 5819 5821 5826 5830 5834 5840 5845 5847 5851 5857 5861 5862 5865 5866 5867 5869 5871 5874 5876 5877 5881 5883 5884 5885 5885 5886 5887 5887 5889 5893 5895 5895 5895 5896 5895 5893
5766 5772 5778 5784 5790 5795 5801 5806 5810 5813 5816 5821 5825 5831 5837 5841 5842 5846 5850 5854 5856 5858 5861 5863 5866 5868 5870 5871 5873 5874 5876 5879 5880 5881 5881 5882 5884 5886 5889 5891 5892 5892 5892 5892 5890
5760 5765 5771 5778 5783 5790 5795 5801 5804 5807 5811 5815 5821 5828 5834 5836 5839 5840 5844 5848 5851 5854 5856 5859 5861 5864 5865 5867 5867 5869 5871 5872 5873 5875 5877 5877 5880 5881 5884 5886 5888 5887 5887 5886 5885